Voltar ao catálogo

STARLINK-33778

AtivoComunicaçõesVLEO
NORAD 63877·PAYLOAD·🇺🇸 United States

Lançado May 10, 2025 de Vandenberg Space Force Base

Loading…

Próximas Passagens (próximas 24 horas)

TLE

AtualizadoSource: CelesTrak SupGP

Época: Sep 14, 2026, 21:39 UTC

1 63877C 25094P   26257.90256944  .00016372  00000+0  56983-3 0  2571
2 63877  69.9985 115.9291 0003130 271.1658  27.6921 15.29554003    16

Acompanhe STARLINK-33778 em tempo real com AllMySat

Download on the App Store